Content
SEND FEEDBACK

Daily
Averages
Monthly
Summary
United States of America

ARCADIA, MISSOURI


Home > North America > United States > Missouri
Elevation: 1054 feet     Latitude: 37 34N     Longitude: 090 37W

WEATHER
 
SELECT A DAY
Number of Records: 442,270;   Date Range: 2/10/95 - 7/23/14
 
SHARE

PRINT THIS DATA

[ ← Previous Day ]
WEATHER ALMANAC - JANUARY 7, 2013
[ Next Day → ]
[ °C ]   °F
Weather ElementAverageHighLow
Temperature29.5 °F44.6 °F (1:55 pm)17.6 °F (2:55 am)
Dewpoint20.3 °F26.6 °F (10:35 am)12.2 °F (3:55 am)
Humidity71.6 %100 % (5:35 am)39 % (3:15 pm)
Barometer30.31 in30.42 in (8:55 am)30.19 in (11:55 pm)
Wind Speed5.7 mph12.7 mph (10:55 am)
Wind Gust17.3 mph (9:15 am)
Weather ElementAverage
Visibility9.2 mi
Wind DirectionESE (125.4 °)

Weather ElementTotal
Precipitation---
Heating Degree Days33.9 (Base 65)
Averaged from 69 records on January 7, 2013
WEATHER CONDITIONS BREAKOUT
WIND DIRECTION BREAKOUT
WEATHER BY HOUR - JANUARY 7, 2013
[ °C ]   °F
Local TimeTemperatureDewpointHumidityBarometerVisibilityWind DirectionWind SpeedGust SpeedPrecipitationEventsConditions
12:35 AM19.4 °F17.6 °F93 %30.39 in7.0 miCalmClear
12:55 AM19.4 °F17.6 °F93 %30.39 in8.0 miCalmClear
1:15 AM19.4 °F17.6 °F93 %30.39 in8.0 miCalmClear
1:35 AM19.4 °F17.6 °F93 %30.39 in10.0 miCalmClear
1:55 AM19.4 °F17.6 °F93 %30.39 in8.0 miCalmClear
2:15 AM19.4 °F17.6 °F93 %30.39 in10.0 miCalmClear
2:35 AM19.4 °F15.8 °F86 %30.40 in10.0 miCalmClear
2:55 AM17.6 °F15.8 °F93 %30.40 in8.0 miCalmClear
3:15 AM19.4 °F15.8 °F86 %30.39 in9.0 miCalmClear
3:35 AM17.6 °F14.0 °F86 %30.39 in8.0 miCalmClear
3:55 AM17.6 °F12.2 °F79 %30.39 in8.0 miCalmClear
4:15 AM17.6 °F15.8 °F93 %30.39 in8.0 miCalmClear
4:35 AM17.6 °F15.8 °F93 %30.39 in8.0 miCalmClear
4:55 AM17.6 °F12.2 °F79 %30.38 in8.0 miCalmClear
5:15 AM17.6 °F15.8 °F93 %30.39 in8.0 miCalmClear
5:35 AM17.6 °F17.6 °F100 %30.39 in10.0 miCalmClear
5:55 AM17.6 °F15.8 °F93 %30.39 in10.0 miSSE (150°)5.8 mphClear
6:15 AM19.4 °F15.8 °F86 %30.38 in10.0 miCalmClear
6:35 AM17.6 °F14.0 °F86 %30.38 in10.0 miCalmClear
6:55 AM17.6 °F15.8 °F93 %30.38 in10.0 miSSE (160°)5.8 mphClear
7:15 AM17.6 °F14.0 °F86 %30.39 in8.0 miSSE (160°)5.8 mphClear
7:35 AM19.4 °F15.8 °F86 %30.38 in8.0 miSSE (150°)3.5 mphClear
7:55 AM19.4 °F17.6 °F93 %30.39 in7.0 miSSE (150°)4.6 mphClear
8:15 AM21.2 °F19.4 °F93 %30.40 in7.0 miSouth (170°)6.9 mphClear
8:35 AM24.8 °F21.2 °F86 %30.41 in6.0 miSSE (150°)8.1 mphClear
8:55 AM26.6 °F23.0 °F86 %30.42 in6.0 miSouth (170°)8.1 mphClear
9:15 AM28.4 °F23.0 °F80 %30.41 in7.0 miSouth (170°)11.5 mph17.3 mphClear
9:35 AM28.4 °F24.8 °F86 %30.41 in7.0 miSouth (180°)10.4 mphClear
9:55 AM30.2 °F24.8 °F80 %30.41 in7.0 miSouth (170°)11.5 mph16.1 mphClear
10:15 AM32.0 °F24.8 °F75 %30.40 in9.0 miSSE (160°)10.4 mph17.3 mphClear
10:35 AM33.8 °F26.6 °F75 %30.39 in9.0 miSouth (170°)11.5 mphClear
10:55 AM35.6 °F26.6 °F70 %30.38 in10.0 miSouth (190°)12.7 mphClear
11:15 AM35.6 °F24.8 °F65 %30.36 in10.0 miSouth (170°)10.4 mphClear
11:35 AM37.4 °F24.8 °F60 %30.35 in10.0 miSouth (170°)6.9 mphClear
11:55 AM37.4 °F24.8 °F60 %30.34 in10.0 miSouth (180°)8.1 mphClear
12:15 PM39.2 °F23.0 °F52 %30.32 in10.0 miSSW (200°)9.2 mphClear
12:35 PM41.0 °F24.8 °F53 %30.32 in10.0 miSSW (200°)9.2 mphClear
1:15 PM42.8 °F23.0 °F46 %30.28 in10.0 miSouth (180°)8.1 mphClear
1:35 PM42.8 °F24.8 °F49 %30.27 in10.0 miSouth (180°)10.4 mphClear
1:55 PM44.6 °F23.0 °F43 %30.27 in10.0 miSSE (160°)11.5 mphClear
2:15 PM44.6 °F24.8 °F46 %30.26 in10.0 miSSE (160°)12.7 mphClear
2:35 PM44.6 °F24.8 °F46 %30.25 in10.0 miSouth (170°)12.7 mphClear
2:55 PM44.6 °F24.8 °F46 %30.25 in10.0 miSouth (190°)10.4 mphClear
3:15 PM44.6 °F21.2 °F39 %30.25 in10.0 miSouth (180°)10.4 mphClear
3:35 PM44.6 °F21.2 °F39 %30.25 in10.0 miSouth (190°)8.1 mphClear
3:55 PM42.8 °F21.2 °F42 %30.25 in10.0 miSouth (180°)8.1 mphClear
4:15 PM42.8 °F21.2 °F42 %30.25 in10.0 miSouth (180°)6.9 mphClear
4:35 PM41.0 °F21.2 °F45 %30.24 in10.0 miSouth (170°)8.1 mphClear
5:15 PM37.4 °F21.2 °F52 %30.23 in10.0 miSouth (180°)8.1 mphClear
5:35 PM37.4 °F21.2 °F52 %30.22 in10.0 miSouth (170°)6.9 mphClear
5:55 PM37.4 °F19.4 °F48 %30.22 in10.0 miSouth (180°)4.6 mphClear
6:15 PM37.4 °F19.4 °F48 %30.23 in10.0 miSouth (190°)5.8 mphClear
6:35 PM33.8 °F19.4 °F56 %30.23 in10.0 miSouth (190°)6.9 mphClear
6:55 PM33.8 °F19.4 °F56 %30.23 in10.0 miSouth (180°)8.1 mphClear
7:15 PM33.8 °F19.4 °F56 %30.22 in10.0 miSouth (170°)8.1 mphClear
7:35 PM33.8 °F19.4 °F56 %30.22 in10.0 miSouth (170°)5.8 mphClear
7:55 PM30.2 °F19.4 °F64 %30.22 in10.0 miSSW (200°)6.9 mphClear
8:15 PM30.2 °F21.2 °F69 %30.22 in10.0 miSW (220°)6.9 mphClear
8:35 PM30.2 °F21.2 °F69 %30.22 in10.0 miSouth (190°)6.9 mphClear
8:55 PM30.2 °F21.2 °F69 %30.22 in10.0 miSouth (190°)9.2 mphClear
9:15 PM30.2 °F21.2 °F69 %30.22 in10.0 miSouth (180°)9.2 mphClear
9:35 PM30.2 °F21.2 °F69 %30.21 in10.0 miSouth (180°)8.1 mphClear
9:55 PM30.2 °F21.2 °F69 %30.21 in10.0 miSouth (170°)6.9 mphClear
10:15 PM30.2 °F21.2 °F69 %30.21 in10.0 miSouth (180°)3.5 mphClear
10:35 PM30.2 °F24.8 °F80 %30.20 in10.0 miSouth (180°)3.5 mphClear
10:55 PM30.2 °F24.8 °F80 %30.20 in10.0 miCalmClear
11:15 PM30.2 °F24.8 °F80 %30.20 in10.0 miCalmClear
11:35 PM30.2 °F23.0 °F75 %30.20 in10.0 miSouth (180°)5.8 mphClear
11:55 PM30.2 °F24.8 °F80 %30.19 in10.0 miSouth (190°)5.8 mphClear
Hourly data recorded from KFAM, located miles away from Arcadia, Missouri







STORIES FROM OUR PARTNERS